Temp
24 25 24 24 23 23 23 22 22 22 21 20 19 19 19 19 19 18 17 16 16 15 15 15 15 14 14 14 14 13 13 13
27 26 25 24 23 22 23 23 22 21 21 21 20 21 20 20 19 19 18 16 16 15 15 15 15 14 14 14 13 13 13 13
27 27 27 25 24 23 23 24 22 23 22 22 20 20 20 19 19 18 18 17 16 15 15 15 14 14 14 13 13 13 13 12
27 27 27 27 26 25 25 25 25 23 22 21 20 19 19 18 19 19 20 18 17 16 15 15 14 14 14 14 14 13 13 12
28 27 28 27 27 27 26 26 25 24 22 21 21 20 20 21 20 19 19 18 17 15 14 14 14 14 14 14 14 13 13 12
27 26 28 28 27 27 26 25 24 23 22 21 21 20 20 19 19 18 19 18 17 16 14 14 14 14 14 13 13 13 12 12
27 27 26 26 25 25 24 23 23 22 22 21 20 20 19 19 18 18 18 17 17 16 15 14 14 14 14 13 13 13 11 10
26 25 25 25 25 24 23 22 22 22 21 21 20 19 18 18 18 18 18 17 17 17 16 15 15 15 14 13 13 12 10 10
23 24 24 24 24 24 24 23 22 21 21 20 20 19 19 18 18 17 16 16 16 16 16 15 15 14 13 13 12 11 9 8
24 24 24 24 24 24 24 23 22 21 21 20 20 20 19 20 20 18 16 15 15 14 14 14 14 13 13 13 12 10 9 8
24 24 24 24 24 23 23 22 22 22 22 22 21 21 21 20 19 19 18 16 15 14 14 14 13 13 13 12 11 10 8 9
24 24 24 24 23 23 23 22 22 22 23 22 21 21 20 19 19 18 17 16 14 14 13 13 13 13 12 11 10 10 9 9
22 21 21 23 24 23 22 22 22 23 23 22 22 21 20 19 19 18 17 16 14 13 13 13 12 12 12 10 10 9 8 8
21 22 22 22 22 23 23 23 23 23 23 22 21 20 20 19 18 18 18 16 15 13 13 13 12 12 11 10 9 8 8 8
20 20 20 21 22 22 22 22 22 22 22 22 21 20 20 19 18 18 17 17 15 14 13 12 12 11 10 9 8 8 8 8
19 19 19 20 20 21 21 21 22 22 21 21 21 20 19 18 18 17 17 16 15 14 13 12 11 11 10 8 8 8 7 7
18 18 19 19 19 20 20 21 21 21 21 20 20 20 19 19 18 18 17 16 15 14 12 12 11 11 9 8 8 7 7 7
17 17 18 19 20 20 20 20 20 21 21 21 19 19 19 19 18 17 17 16 15 13 12 11 11 9 8 7 7 6 6 5
16 16 17 17 18 19 18 18 18 18 18 17 17 16 17 17 16 16 16 15 14 13 11 10 9 8 7 6 5 5 4 4
Height
1471 1473 1476 1480 1483 1487 1491 1493 1494 1498 1502 1503 1505 1506 1507 1508 1510 1511 1514 1516 1518 1519 1519 1520 1522 1522 1523 1525 1526 1528 1528 1530
1464 1466 1471 1473 1476 1479 1484 1487 1488 1492 1495 1496 1497 1497 1499 1501 1503 1506 1508 1510 1512 1513 1513 1515 1517 1516 1517 1519 1522 1523 1523 1523
1460 1460 1462 1463 1466 1469 1475 1479 1482 1484 1486 1488 1491 1493 1494 1496 1498 1500 1502 1504 1505 1506 1506 1507 1509 1511 1513 1516 1518 1518 1519 1520
1448 1451 1454 1456 1458 1462 1465 1468 1471 1474 1479 1483 1485 1489 1490 1491 1492 1493 1495 1497 1498 1499 1500 1502 1504 1506 1507 1510 1511 1511 1513 1513
1439 1443 1447 1450 1452 1455 1459 1462 1464 1467 1471 1475 1478 1480 1481 1483 1486 1489 1490 1491 1492 1493 1495 1497 1498 1499 1500 1501 1504 1505 1505 1501
1432 1437 1441 1445 1448 1451 1455 1458 1459 1462 1466 1470 1473 1475 1478 1480 1483 1485 1486 1485 1486 1488 1489 1491 1493 1493 1493 1494 1496 1494 1498 1479
1433 1435 1438 1441 1445 1449 1452 1454 1456 1460 1464 1467 1469 1471 1473 1476 1478 1478 1479 1480 1481 1481 1482 1483 1484 1485 1485 1485 1488 1486 1488 1487
1436 1437 1439 1441 1445 1448 1452 1454 1456 1459 1462 1463 1465 1467 1469 1472 1473 1473 1472 1473 1474 1474 1475 1476 1477 1477 1477 1476 1478 1480 1470 1477
1444 1444 1444 1445 1447 1449 1452 1454 1455 1456 1457 1459 1461 1463 1464 1465 1465 1464 1465 1465 1467 1468 1467 1468 1470 1468 1469 1469 1471 1467 1482 1466
1448 1448 1447 1447 1446 1446 1447 1448 1449 1450 1452 1455 1455 1456 1456 1457 1457 1457 1456 1457 1458 1459 1459 1460 1460 1461 1461 1462 1461 1467 1465 1477
1447 1447 1447 1446 1445 1444 1444 1444 1445 1445 1446 1447 1449 1450 1450 1451 1451 1450 1449 1449 1450 1450 1450 1451 1452 1452 1453 1454 1457 1458 1464 1469
1447 1446 1445 1443 1442 1439 1439 1439 1439 1439 1440 1441 1441 1442 1443 1443 1443 1443 1442 1442 1443 1444 1444 1446 1447 1447 1449 1449 1453 1451 1459 1463
1444 1444 1443 1440 1437 1435 1433 1433 1432 1432 1432 1433 1433 1435 1435 1435 1435 1435 1436 1436 1436 1438 1440 1440 1442 1442 1442 1444 1444 1449 1455 1456
1438 1435 1432 1432 1431 1429 1427 1427 1427 1426 1425 1425 1425 1426 1427 1428 1429 1430 1430 1430 1430 1431 1433 1435 1435 1437 1438 1439 1442 1446 1447 1449
1431 1427 1425 1422 1421 1419 1420 1421 1422 1421 1420 1419 1418 1420 1420 1422 1423 1423 1423 1423 1424 1425 1426 1428 1429 1430 1433 1436 1438 1440 1443 1444
1425 1420 1416 1413 1412 1412 1412 1414 1415 1414 1413 1411 1411 1413 1414 1416 1416 1416 1416 1416 1416 1418 1419 1420 1421 1423 1425 1430 1434 1436 1438 1439
1421 1417 1411 1407 1405 1404 1405 1406 1406 1405 1403 1401 1402 1404 1407 1408 1409 1408 1409 1409 1408 1409 1409 1412 1413 1414 1416 1421 1426 1428 1431 1431
1417 1414 1409 1404 1401 1399 1398 1397 1397 1397 1396 1394 1394 1396 1399 1401 1402 1402 1402 1401 1401 1401 1403 1404 1406 1409 1412 1415 1417 1421 1421 1425
1416 1413 1408 1403 1399 1397 1396 1394 1393 1393 1392 1392 1393 1395 1397 1398 1400 1399 1398 1398 1397 1396 1397 1398 1401 1404 1404 1408 1411 1413 1415 1417
Wind_Speed
43 50 51 49 48 45 43 42 40 39 36 35 33 31 30 31 32 32 31 31 30 31 31 30 29 32 32 30 30 28 29 29
25 33 48 53 51 50 48 48 46 43 42 40 38 34 33 34 33 33 33 33 32 33 34 34 33 34 35 34 32 32 33 33
30 27 28 39 54 53 49 49 50 48 47 44 41 36 36 35 35 35 34 35 36 37 37 37 37 38 37 36 35 36 38 36
29 31 27 30 36 44 46 44 46 49 50 48 45 42 39 38 36 37 37 37 37 37 37 38 38 39 41 39 38 40 41 39
26 26 27 31 32 36 43 43 45 49 52 51 48 46 43 40 37 36 37 39 38 38 38 39 41 42 43 44 42 40 44 46
11 20 25 32 33 38 43 46 47 49 50 50 48 48 44 41 37 34 34 34 35 40 41 38 38 41 43 45 45 37 47 44
5 12 19 24 29 36 39 43 44 45 47 46 46 46 44 41 39 37 34 34 34 36 38 40 35 39 43 47 45 40 38 9
5 8 9 11 15 21 25 28 30 33 35 38 40 40 40 38 38 39 39 38 36 35 35 36 35 38 40 48 44 45 29 15
4 4 5 6 7 8 11 14 19 23 25 25 28 30 32 34 35 38 39 37 35 33 34 35 38 40 42 41 43 39 13 20
7 8 11 12 15 15 16 19 20 21 21 21 24 25 25 21 25 32 33 30 32 32 31 31 33 34 36 39 34 24 15 18
14 17 19 21 21 22 20 20 21 19 18 21 22 20 18 18 22 26 30 30 30 31 31 33 31 35 32 33 26 19 19 21
16 16 21 28 30 30 28 25 24 24 24 27 26 26 23 21 20 21 26 29 31 34 31 33 31 32 28 26 21 21 25 23
32 32 31 32 35 37 36 32 30 29 29 31 32 30 25 23 21 19 20 25 29 30 31 30 32 29 28 25 24 28 30 24
39 42 44 40 33 39 41 40 38 35 36 36 36 34 30 27 23 19 19 21 26 28 28 30 27 28 30 26 26 32 32 22
35 36 38 34 31 31 42 43 41 41 43 43 42 39 35 30 25 23 22 22 24 28 28 28 27 31 30 29 33 34 26 19
34 35 35 34 33 27 26 37 43 45 48 49 49 43 38 33 30 28 26 27 27 29 30 29 31 31 32 35 35 30 21 18
23 24 24 24 26 26 24 27 33 35 42 48 51 47 39 35 33 32 30 31 34 35 34 33 32 34 36 38 35 28 19 16
20 21 21 20 19 20 23 25 25 23 25 27 35 44 42 38 37 35 36 38 38 37 37 35 34 36 39 38 32 21 14 13
16 19 20 17 15 15 17 18 18 19 21 25 29 32 34 34 34 36 39 41 41 40 38 36 37 40 38 29 20 18 15 13
Wind_Direction
240 238 235 236 234 233 232 231 230 229 227 228 229 233 234 237 238 235 231 231 236 237 241 241 241 242 243 243 243 245 250 254
272 245 239 239 237 236 235 235 234 230 228 227 228 232 231 236 240 239 236 234 236 237 242 241 241 245 249 249 248 247 252 250
269 254 246 239 238 237 237 238 235 234 231 232 232 235 237 240 243 243 244 240 238 238 241 244 243 246 248 248 249 251 253 247
275 249 249 235 232 233 234 234 235 233 231 230 232 234 238 241 244 247 249 248 246 244 246 250 250 250 251 250 249 250 248 241
271 242 246 240 241 234 232 233 234 233 230 232 233 236 239 244 246 248 251 253 253 252 249 248 252 253 253 254 256 254 246 242
271 238 240 241 235 233 231 233 234 233 233 234 236 238 244 249 252 256 258 258 258 257 255 255 258 256 255 255 257 250 252 232
290 255 248 241 232 231 236 236 237 237 236 239 241 244 247 250 255 261 266 265 263 261 258 258 261 263 266 258 260 255 240 190
285 246 229 227 230 234 241 246 248 248 247 249 250 250 251 255 261 265 268 268 271 274 269 263 263 271 267 261 258 257 211 249
150 174 199 213 218 224 232 236 236 238 241 246 251 254 257 261 263 265 266 268 271 273 277 268 262 267 265 262 258 233 250 195
270 252 246 248 250 249 245 250 240 237 239 244 249 252 253 261 271 271 269 266 267 271 269 269 265 268 268 259 242 215 221 216
265 262 258 253 253 250 247 247 249 247 245 245 240 238 244 258 268 274 276 273 267 268 272 270 268 272 268 251 221 228 198 208
297 295 282 265 256 252 250 246 245 240 250 249 236 236 251 255 266 277 273 269 263 263 267 274 268 266 260 233 228 212 203 205
323 315 308 293 271 252 248 250 248 250 258 255 251 247 252 253 262 278 285 276 268 265 261 263 265 259 236 233 227 206 211 212
306 304 301 300 284 266 251 245 252 256 259 258 255 251 253 254 260 271 279 277 266 259 256 257 250 240 240 238 221 211 213 222
311 310 301 299 292 281 254 249 254 258 261 260 257 254 256 256 258 261 268 272 264 257 257 251 245 236 241 223 209 214 218 232
320 316 311 304 298 287 277 262 261 264 267 266 260 258 255 256 255 259 264 268 264 258 257 248 241 240 230 213 213 217 230 242
342 341 329 323 312 304 291 280 280 273 270 270 265 259 256 256 259 261 262 269 263 253 248 242 240 232 220 215 219 225 237 249
351 348 344 337 327 305 294 295 292 285 287 284 269 262 255 256 257 258 260 262 263 253 243 238 234 219 209 213 218 227 234 253
360 356 358 359 353 338 330 325 313 301 291 283 277 272 265 264 264 266 265 265 260 252 239 232 221 211 209 212 217 223 239 266